Date String (YYYY-MM-DD hh:mm:ss) UTC,Instrument flags,Ambient pressure (hPa),Sample flow (lpm),Bypass flow (lpm),Sample temperature (°C),Ambient temperature (°C),ASC tube jacket temperature (°C),LED temperature (°C),Box temperature (°C),Sample RH (%),Span deviation,Mass concentration (μg/m³),Mass concentration (μg/m³),Mass concentration (μg/m³)
DateTimeUTC,F1_M11,P_M11,Q1_M11,Q2_M11,T1_M11,T2_M11,T3_M11,T4_M11,T5_M11,U1_M11,ZSPAN_M11,X0_M11,X2_M11,X1_M11
2021-12-05 14:00:00,,0817.5,5.00,0.00,24.8,23.9,00.0,33.8,26.6,06.7,0000.0,0008.64,0000.94,0000.37
2021-12-05 14:01:00,,0817.5,5.00,0.00,24.8,23.9,00.0,33.8,26.6,06.6,0000.0,0008.65,0000.94,0000.37
2021-12-05 14:02:00,,0817.4,5.01,0.00,24.8,23.9,00.0,33.8,26.6,06.6,0000.0,0008.52,0000.97,0000.38
2021-12-05 14:03:00,,0817.5,5.00,0.00,24.8,23.9,00.0,33.8,26.6,06.7,0000.0,0008.43,0000.93,0000.38
2021-12-05 14:04:00,,0817.3,5.00,0.00,24.8,23.9,00.0,33.8,26.6,06.8,0000.0,0007.87,0000.90,0000.37
2021-12-05 14:05:00,,0817.5,5.00,0.00,24.8,23.9,00.0,33.8,26.6,06.8,0000.0,0007.48,0000.84,0000.36
2021-12-05 14:06:00,,0817.4,5.00,0.00,24.8,23.9,00.0,33.8,26.5,06.7,0000.0,0006.45,0000.79,0000.35
2021-12-05 14:07:00,,0817.2,5.00,0.00,24.8,23.9,00.0,33.8,26.6,06.9,0000.0,0003.34,0000.80,0000.34
2021-12-05 14:08:00,,0817.5,5.01,0.00,24.8,23.9,00.0,33.8,26.6,06.7,0000.0,0003.17,0000.78,0000.33
2021-12-05 14:09:00,,0817.4,5.01,0.00,24.8,23.8,00.0,33.8,26.6,06.7,0000.0,0003.00,0000.77,0000.33
2021-12-05 14:10:00,,0817.3,4.99,0.00,24.8,23.8,00.0,33.8,26.6,06.8,0000.0,0002.42,0000.72,0000.32
2021-12-05 14:11:00,,0817.1,5.00,0.00,24.8,23.8,00.0,33.8,26.6,06.9,0000.0,0002.29,0000.71,0000.31
2021-12-05 14:12:00,,0817.2,5.00,0.00,24.8,23.8,00.0,33.8,26.6,06.8,0000.0,0001.87,0000.76,0000.32
2021-12-05 14:13:00,,0817.4,5.00,0.00,24.8,23.8,00.0,33.8,26.5,06.8,0000.0,0001.87,0000.72,0000.32
2021-12-05 14:14:00,,0817.5,5.00,0.00,24.7,23.8,00.0,33.8,26.5,06.8,0000.0,0002.00,0000.72,0000.31
2021-12-05 14:15:00,,0817.4,5.00,0.00,24.7,23.8,00.0,33.8,26.5,06.9,0000.0,0002.26,0000.75,0000.32
2021-12-05 14:16:00,,0817.2,5.01,0.00,24.7,23.8,00.0,33.8,26.5,07.0,0000.0,0002.52,0000.81,0000.32
2021-12-05 14:17:00,,0817.1,4.98,0.00,24.7,23.8,00.0,33.8,26.5,07.1,0000.0,0004.12,0000.89,0000.33
2021-12-05 14:18:00,,0817.1,4.99,0.00,24.7,23.8,00.0,33.8,26.6,07.1,0000.0,0004.19,0000.91,0000.33
2021-12-05 14:19:00,,0817.0,5.00,0.00,24.7,23.8,00.0,33.8,26.5,07.2,0000.0,0006.05,0000.99,0000.34
2021-12-05 14:20:00,,0817.0,5.00,0.00,24.7,23.7,00.0,33.8,26.5,07.1,0000.0,0006.20,0001.04,0000.34
2021-12-05 14:21:00,,0817.2,5.00,0.00,24.7,23.7,00.0,33.7,26.5,07.1,0000.0,0006.22,0001.06,0000.35
2021-12-05 14:22:00,,0817.3,5.00,0.00,24.7,23.7,00.0,33.7,26.5,07.2,0000.0,0006.96,0001.09,0000.35
2021-12-05 14:23:00,,0817.4,5.01,0.00,24.7,23.7,00.0,33.7,26.5,07.2,0000.0,0007.03,0001.03,0000.34
2021-12-05 14:24:00,,0817.2,5.00,0.00,24.7,23.7,00.0,33.7,26.5,07.1,0000.0,0006.97,0001.04,0000.33
2021-12-05 14:25:00,,0817.3,4.99,0.00,24.7,23.7,00.0,33.7,26.5,07.2,0000.0,0006.96,0001.08,0000.33
2021-12-05 14:26:00,,0817.4,5.01,0.00,24.7,23.7,00.0,33.7,26.5,07.1,0000.0,0006.75,0001.07,0000.34
2021-12-05 14:27:00,,0817.4,5.01,0.00,24.7,23.7,00.0,33.7,26.5,07.1,0000.0,0006.65,0001.06,0000.33
2021-12-05 14:28:00,,0817.3,4.99,0.00,24.7,23.7,00.0,33.7,26.5,07.2,0000.0,0005.42,0001.03,0000.33
2021-12-05 14:29:00,,0817.4,5.00,0.00,24.7,23.7,00.0,33.7,26.5,07.3,0000.0,0005.84,0001.00,0000.32
2021-12-05 14:30:00,,0817.3,5.00,0.00,24.7,23.8,00.0,33.7,26.5,07.3,0000.0,0004.10,0000.88,0000.31
2021-12-05 14:31:00,,0817.5,5.00,0.00,24.7,23.7,00.0,33.7,26.5,07.3,0000.0,0004.09,0000.81,0000.31
2021-12-05 14:32:00,,0817.3,5.00,0.00,24.7,23.7,00.0,33.7,26.5,07.4,0000.0,0004.59,0000.84,0000.32
2021-12-05 14:33:00,,0817.1,5.01,0.00,24.7,23.7,00.0,33.7,26.5,07.4,0000.0,0004.42,0000.94,0000.33
2021-12-05 14:34:00,,0817.2,5.01,0.00,24.7,23.7,00.0,33.7,26.4,07.4,0000.0,0005.41,0001.12,0000.35
2021-12-05 14:35:00,,0817.3,5.00,0.00,24.7,23.7,00.0,33.7,26.4,07.4,0000.0,0006.12,0001.20,0000.35
2021-12-05 14:36:00,,0817.4,5.01,0.00,24.7,23.7,00.0,33.7,26.5,07.5,0000.0,0006.33,0001.24,0000.36
2021-12-05 14:37:00,,0817.4,5.00,0.00,24.7,23.7,00.0,33.7,26.5,07.5,0000.0,0006.56,0001.28,0000.36
2021-12-05 14:38:00,,0817.5,5.01,0.00,24.7,23.7,00.0,33.6,26.5,07.7,0000.0,0006.58,0001.30,0000.36
2021-12-05 14:39:00,,0817.5,5.00,0.00,24.7,23.7,00.0,33.6,26.5,07.6,0000.0,0006.46,0001.28,0000.37
2021-12-05 14:40:00,,0817.1,5.00,0.00,24.6,23.7,00.0,33.6,26.4,07.6,0000.0,0005.92,0001.31,0000.38
2021-12-05 14:41:00,,0817.2,5.01,0.00,24.6,23.7,00.0,33.6,26.4,07.7,0000.0,0012.54,0001.52,0000.42
2021-12-05 14:42:00,,0817.3,5.01,0.00,24.6,23.6,00.0,33.6,26.4,07.6,0000.0,0012.73,0001.58,0000.43
2021-12-05 14:43:00,,0817.2,4.99,0.00,24.6,23.6,00.0,33.6,26.4,07.6,0000.0,0012.54,0001.57,0000.42
2021-12-05 14:44:00,,0816.9,5.00,0.00,24.6,23.6,00.0,33.6,26.4,07.7,0000.0,0012.43,0001.49,0000.41
2021-12-05 14:45:00,,0816.7,5.00,0.00,24.6,23.6,00.0,33.6,26.4,07.7,0000.0,0016.20,0001.59,0000.41
2021-12-05 14:46:00,,0817.4,5.00,0.00,24.6,23.5,00.0,33.6,26.3,07.7,0000.0,0023.19,0001.83,0000.44
2021-12-05 14:47:00,,0817.5,4.99,0.00,24.6,23.6,00.0,33.6,26.3,07.7,0000.0,0023.68,0001.84,0000.43
2021-12-05 14:48:00,,0817.0,5.00,0.00,24.6,23.6,00.0,33.6,26.4,07.7,0000.0,0023.64,0001.84,0000.43
2021-12-05 14:49:00,,0816.9,5.00,0.00,24.6,23.6,00.0,33.6,26.4,07.8,0000.0,0025.50,0002.13,0000.45
2021-12-05 14:50:00,,0817.2,5.01,0.00,24.6,23.5,00.0,33.6,26.3,07.8,0000.0,0029.74,0002.58,0000.50
2021-12-05 14:51:00,,0817.2,5.00,0.00,24.6,23.6,00.0,33.6,26.4,07.9,0000.0,0030.99,0002.67,0000.50
2021-12-05 14:52:00,,0817.0,4.99,0.00,24.6,23.6,00.0,33.6,26.3,07.8,0000.0,0025.85,0002.46,0000.46
2021-12-05 14:53:00,,0816.8,5.01,0.00,24.6,23.6,00.0,33.6,26.4,07.8,0000.0,0025.32,0002.38,0000.45
2021-12-05 14:54:00,,0816.8,4.99,0.00,24.5,23.6,00.0,33.6,26.3,07.8,0000.0,0025.38,0002.42,0000.45
2021-12-05 14:55:00,,0816.9,4.98,0.00,24.5,23.6,00.0,33.6,26.3,07.7,0000.0,0025.84,0002.52,0000.46
2021-12-05 14:56:00,,0817.1,5.01,0.00,24.5,23.6,00.0,33.6,26.3,07.6,0000.0,0022.89,0002.33,0000.46
2021-12-05 14:57:00,,0817.1,4.99,0.00,24.5,23.6,00.0,33.6,26.3,07.6,0000.0,0016.09,0002.03,0000.43
2021-12-05 14:58:00,,0817.2,5.00,0.00,24.5,23.6,00.0,33.6,26.3,07.6,0000.0,0015.34,0001.96,0000.42
2021-12-05 14:59:00,,0817.0,5.00,0.00,24.5,23.6,00.0,33.6,26.3,07.6,0000.0,0015.37,0001.91,0000.42
